Location: Newark
(51.3000°N, 178.2000°W)
Time: 02:01:31
(UTC+00:00)

ISS - Pass Details

Date: 12 May 2021
Orbit: 417 x 422 km, 51.6° (Epoch: 15 June)

Event Time Altitude Azimuth Distance (km) Brightness Sun altitude
Exits shadow 13:13:34 22° 275° (W) 968 -2.1 -18.0°
Maximum altitude 13:15:36 82° 360° (N) 431 -3.8 -17.9°
Drops below altitude 10° 13:19:00 10° 90° (E) 1,510 -0.7 -17.7°
Sets 13:21:06 0° 92° (E) 2,375 0.4 -17.6°
